Location: Newark
(25.0000°N, 73.5000°E)
Time: 05:00:06
(UTC+00:00)

Altair - Pass Details

Date: 06 March 2021
Orbit: 1501 x 1683 km, 47.2° (Epoch: 12 April)

Event Time Altitude Azimuth Distance (km) Brightness Sun altitude
Rises 22:05:44 0° 294° (WNW) 4,814 - -45.1°
Reaches altitude 10° 22:09:46 10° 280° (W) 3,856 - -44.2°
Maximum altitude 22:16:41 22° 235° (SW) 3,065 - -42.7°
Drops below altitude 10° 22:23:44 10° 189° (S) 3,922 - -41.2°
Exits shadow 22:27:25 - 176° (S) 4,782 10.0 -40.4°
Sets 22:27:57 0° 175° (S) 4,918 10.1 -40.3°
